Houghton, MI

10:10 PM EDT on July 22, 2017 (GMT -0400)
Houghton County Memorial

Weather History for KCMX - January, 2014

Change the Weather History Date:

Saturday, January 18, 2014

  Actual Average Record
Temperature  
Mean Temperature 12 °F -  
Max Temperature 17 °F 22 °F 42 °F (1973)
Min Temperature 8 °F 11 °F -12 °F (1967)
Degree Days  
Heating Degree Days 52    
Moisture  
Dew Point 7 °F    
Average Humidity 76    
Maximum Humidity 84    
Minimum Humidity 59    
Precipitation  
Precipitation 0.01 in - - ()
Sea Level Pressure  
Sea Level Pressure 29.78 in    
Wind  
Wind Speed 4 mph (WSW)    
Max Wind Speed 18 mph    
Max Gust Speed 26 mph    
Visibility 8 miles    
Events Snow    
Averages and records for this station are not official NWS values.
T = Trace of Precipitation, MM = Missing Value Source: NWS Daily Summary

Daily Weather History Graph

Daily Weather History Graph

Search for Another Location

Airport or City:

Trip Planner

Search our weather history database for the weather conditions in past years. The results will help you decide how hot, cold, wet, or windy it might be!

Date:

Astronomy

Jan. 18, 2014 Rise Set
Actual Time 8:33 AM EST 5:35 PM EST
Civil Twilight 7:59 AM EST 6:09 PM EST
Nautical Twilight 7:21 AM EST 6:47 PM EST
Astronomical Twilight 6:45 AM EST 7:23 PM EST
Moon 8:31 PM EST (1/18) 9:21 AM EST (1/18)
Length of Visible Light 10h 09m
Length of Day
9h 01m
Waning Gibbous, 94% of the Moon is Illuminated
Jan 18
Waning Gibbous
Jan 24
Last Quarter
Jan 30
New
Feb 6
First Quarter
Feb 14
Full

Hourly Weather History & Observations

Time (EST) Temp. Windchill Dew Point Humidity Pressure Visibility Wind Dir Wind Speed Gust Speed Precip Events Conditions
12:53 AM 10.9 °F - 7.0 °F 84% 29.87 in 7.0 mi Calm Calm - 0.00 in   Overcast
1:53 AM 10.9 °F - 7.0 °F 84% 29.85 in 10.0 mi Calm Calm - N/A   Overcast
2:53 AM 10.9 °F - 6.1 °F 81% 29.85 in 10.0 mi Calm Calm - N/A   Overcast
3:53 AM 12.0 °F - 7.0 °F 80% 29.85 in 7.0 mi Calm Calm - 0.00 in Snow Light Snow
4:53 AM 10.9 °F - 6.1 °F 81% 29.83 in 10.0 mi Calm Calm - 0.00 in   Overcast
5:53 AM 10.9 °F 4.7 °F 6.1 °F 81% 29.83 in 10.0 mi SSE 3.5 mph - N/A   Overcast
6:53 AM 10.9 °F - 6.1 °F 81% 29.84 in 10.0 mi Calm Calm - N/A   Overcast
7:53 AM 10.9 °F - 6.1 °F 81% 29.84 in 7.0 mi Calm Calm - 0.00 in Snow Light Snow
8:53 AM 12.0 °F - 7.0 °F 80% 29.85 in 5.0 mi Calm Calm - 0.00 in Snow Light Snow
9:53 AM 12.0 °F - 7.0 °F 80% 29.87 in 3.0 mi Calm Calm - 0.00 in Snow Light Snow
10:53 AM 12.9 °F - 8.1 °F 81% 29.88 in 9.0 mi Calm Calm - 0.00 in   Overcast
11:53 AM 12.9 °F 6.9 °F 8.1 °F 81% 29.88 in 3.0 mi SSW 3.5 mph - 0.00 in Snow Light Snow
12:53 PM 14.0 °F 6.5 °F 8.1 °F 77% 29.87 in 10.0 mi SSW 4.6 mph - 0.01 in   Overcast
1:14 PM 14.0 °F 8.2 °F 6.8 °F 73% 29.79 in 10.0 mi SE 3.5 mph - N/A   Scattered Clouds
1:53 PM 14.0 °F 8.2 °F 7.0 °F 74% 29.84 in 10.0 mi SSW 3.5 mph - N/A   Clear
2:53 PM 15.1 °F - 5.0 °F 64% 29.84 in 10.0 mi Calm Calm - N/A   Clear
3:53 PM 12.9 °F -0.2 °F 5.0 °F 71% 29.82 in 10.0 mi NW 10.4 mph - N/A   Clear
4:53 PM 14.0 °F 2.0 °F 6.1 °F 71% 29.81 in 10.0 mi West 9.2 mph - N/A   Clear
5:53 PM 8.1 °F -2.0 °F 3.0 °F 80% 29.81 in 10.0 mi West 5.8 mph - N/A   Clear
6:53 PM 8.1 °F -4.3 °F 3.0 °F 80% 29.79 in 10.0 mi West 8.1 mph - N/A   Scattered Clouds
7:02 PM 12.2 °F 0.7 °F 6.8 °F 79% 29.71 in 10.0 mi WSW 8.1 mph - N/A   Mostly Cloudy
7:30 PM 12.2 °F -3.1 °F 6.8 °F 79% 29.68 in 10.0 mi WSW 13.8 mph - N/A   Scattered Clouds
7:53 PM 12.9 °F -1.6 °F 7.0 °F 77% 29.73 in 10.0 mi West 12.7 mph - N/A   Clear
8:53 PM 15.1 °F 1.1 °F 7.0 °F 70% 29.68 in 6.0 mi WSW 12.7 mph - N/A   Haze
9:53 PM 16.0 °F 0.6 °F 6.1 °F 65% 29.63 in 10.0 mi WSW 16.1 mph 21.9 mph N/A   Overcast
10:53 PM 17.1 °F 3.0 °F 5.0 °F 59% 29.56 in 10.0 mi WSW 13.8 mph 21.9 mph N/A   Overcast
11:17 PM 17.6 °F 1.7 °F 8.6 °F 68% 29.48 in 1.8 mi West 18.4 mph 26.5 mph 0.00 in Snow Light Snow
11:53 PM 17.1 °F 1.0 °F 10.9 °F 77% 29.52 in 1.2 mi West 18.4 mph 25.3 mph 0.00 in Snow Light Snow